Location: Copper Breaks State Park
(34.1132°N, 99.7492°W)
Time: 05:41:10
(UTC-05:00)

SL-16 R/B - Visible Passes

Search period start: 24 July 2014 00:00
Search period end: 03 August 2014 00:00
Orbit: 985 x 1007 km, 99.2° (Epoch: 24 July)

Date Brightness Start Highest point End Pass type
(mag) Time Alt. Az. Time Alt. Az. Time Alt. Az.
24 Jul 4.1 04:58:30 10° SE 05:04:06 36° ENE 05:09:43 10° N visible
25 Jul 3.0 05:28:39 10° SSE 05:34:49 66° ENE 05:41:00 10° N visible
26 Jul 5.2 04:19:03 10° E 04:22:44 17° ENE 04:26:25 10° NNE visible
26 Jul 2.6 05:59:27 10° S 06:05:40 70° WSW 06:11:55 10° NNW visible
27 Jul 4.5 04:47:58 10° SE 04:53:15 30° ENE 04:58:31 10° N visible
28 Jul 3.4 05:17:53 10° SSE 05:23:55 53° ENE 05:29:58 10° N visible
29 Jul 5.4 04:09:12 10° E 04:11:57 13° ENE 04:14:41 10° NE visible
29 Jul 2.6 05:48:28 10° SSE 05:54:44 85° WSW 06:01:00 10° NNW visible
30 Jul 4.7 04:37:34 10° ESE 04:42:25 24° ENE 04:47:15 10° NNE visible
30 Jul 2.8 06:19:42 10° S 06:25:40 47° W 06:31:39 10° NNW visible
31 Jul 3.8 05:07:11 10° SE 05:13:02 43° ENE 05:18:52 10° N visible
01 Aug 5.6 04:00:14 10° ENE 04:01:11 10° ENE 04:02:07 10° NE visible
01 Aug 2.7 05:37:33 10° SSE 05:43:47 79° ENE 05:50:02 10° N visible
02 Aug 5.0 04:27:17 10° ESE 04:31:35 20° ENE 04:35:53 10° NNE visible
02 Aug 2.6 06:08:34 10° S 06:14:41 58° W 06:20:50 10° NNW visible
